"America/Chicago Time","Lifetime Energy (kWh)","Power (W)","AC Volts RMS (V) ","AC Amps RMS (mA)","Grid Frequency (Hz)","Inverter Temperature (C)"
"04/09/12 12:26:25","57.7076","92.5","215.84","446","60.03","11"
"04/09/12 12:31:26","57.7171","42.1","214.16","374","60.0","11"
"04/09/12 12:36:25","57.721","43.6","213.81","79","60.03","11"
"04/09/12 12:41:25","57.7248","49.9","215.11","378","60.0","10"
"04/09/12 12:46:26","57.7287","59.7","215.51","341","60.0","10"
"04/09/12 12:51:27","57.7327","55.3","216.13","193","60.03","9"
"04/09/12 12:56:26","57.7365","53.0","215.16","105","60.03","9"
"04/09/12 13:01:25","57.7403","36.8","216.51","77","60.0","9"
"04/09/12 13:06:26","57.7442","50.0","214.82","146","60.0","9"
"04/09/12 13:11:26","57.7481","53.7","214.96","163","60.0","9"
"04/09/12 13:16:25","57.7518","50.2","214.52","324","60.03","9"
"04/09/12 13:21:25","57.7578","82.5","215.23","406","60.03","9"
"04/09/12 13:26:25","57.7636","46.6","214.82","370","60.03","9"
"04/09/12 13:31:25","57.7671","53.1","214.85","99","60.03","9"
"04/09/12 13:36:26","57.771","46.2","215.23","95","60.0","9"
"04/09/12 13:41:26","57.7748","37.8","215.1","267","60.0","9"
"04/09/12 13:46:27","57.7781","43.6","214.7","344","60.03","8"
"04/09/12 13:51:25","57.7817","33.3","214.3","161","60.03","8"
"04/09/12 13:56:25","57.7846","31.0","214.85","78","60.03","8"
"04/09/12 14:01:25","57.7864","22.3","215.21","22","60.0","8"
"04/09/12 14:06:26","57.7882","27.8","214.54","120","60.03","7"
"04/09/12 14:11:26","57.7897","15.1","214.56","59","60.03","7"
"04/09/12 14:16:25","57.7908","15.3","214.6","143","60.03","7"
"04/09/12 14:21:26","57.7919","20.6","214.81","15","60.0","7"
"04/09/12 14:26:26","57.7929","12.8","214.8","1","59.96","6"
"04/09/12 14:31:27","57.7937","25.5","214.56","217","60.03","6"
"04/09/12 14:36:25","57.7962","35.4","215.56","351","60.03","6"
"04/09/12 14:41:26","57.799","27.7","213.58","220","60.0","6"
"04/09/12 14:46:26","57.8018","37.3","214.81","288","60.03","7"
"04/09/12 14:51:25","57.8054","52.1","215.53","355","60.0","7"
"04/09/12 14:56:26","57.8119","108.8","216.58","515","60.03","7"
"04/09/12 15:01:26","57.8204","83.8","216.31","409","60.03","8"
"04/09/12 15:06:26","57.8279","88.9","216.44","430","60.03","8"
"04/09/12 15:11:26","57.8348","60.9","215.78","312","60.0","8"
"04/09/12 15:16:27","57.8413","79.7","216.22","393","60.0","9"
"04/09/12 15:21:26","57.849","197.2","218.07","891","60.0","9"
"04/09/12 15:26:26","57.8562","45.9","214.69","125","59.96","8"
"04/09/12 15:31:27","57.8599","47.1","215.52","299","60.03","8"
"04/09/12 15:36:25","57.8665","72.8","215.7","364","60.0","8"
"04/09/12 15:41:25","57.8711","51.6","214.34","362","60.0","8"
"04/09/12 15:46:25","57.874","33.9","215.35","302","60.03","8"
"04/09/12 15:51:25","57.8768","43.4","214.91","158","60.03","7"
"04/09/12 15:56:25","57.8798","28.7","214.11","101","60.03","7"
"04/09/12 16:01:26","57.8819","25.2","214.65","215","60.0","7"
"04/09/12 16:06:26","57.8844","36.2","214.63","212","60.03","6"
"04/09/12 16:11:26","57.8877","46.3","215.9","191","60.0","6"
"04/09/12 16:16:25","57.891","27.1","214.89","247","60.03","6"
"04/09/12 16:21:26","57.892","13.7","214.32","0","60.03","6"
"04/09/12 16:26:25","57.8945","55.6","214.74","82","60.03","6"
"04/09/12 16:31:26","57.8981","36.7","214.04","106","60.0","6"
"04/09/12 16:36:26","57.9011","32.1","214.35","271","60.03","6"
"04/09/12 16:41:25","57.904","42.5","214.07","123","60.0","6"
"04/09/12 16:46:25","57.9069","27.7","214.46","286","60.0","6"
"04/09/12 16:51:26","57.9093","27.6","214.1","223","60.03","6"
"04/09/12 16:56:26","57.912","35.2","215.51","247","60.03","6"
"04/09/12 17:01:26","57.9157","40.0","215.26","257","60.07","6"
"04/09/12 17:06:25","57.9196","49.0","215.0","338","60.03","7"
"04/09/12 17:11:25","57.9228","39.0","214.79","276","60.03","7"
"04/09/12 17:16:26","57.9257","34.4","214.5","208","60.03","7"
"04/09/12 17:21:26","57.9285","29.3","214.69","171","60.0","7"
"04/09/12 17:26:25","57.931","35.6","214.36","270","60.03","7"
"04/09/12 17:31:26","57.9333","25.1","214.35","199","60.03","7"
"04/09/12 17:36:26","57.9354","23.8","214.31","48","60.03","7"
"04/09/12 17:41:26","57.9371","22.1","214.42","181","60.03","7"
"04/09/12 17:46:26","57.9387","21.2","213.93","256","60.03","7"
"04/09/12 17:51:25","57.9401","18.5","213.57","17","60.03","6"
"04/09/12 17:56:25","57.9413","12.3","212.8","21","60.03","6"
"04/09/12 18:01:25","57.942","7.3","213.86","0","60.03","6"
"04/09/12 18:06:25","57.9428","16.2","214.38","96","60.07","6"
"04/09/12 18:11:25","57.9439","6.6","213.34","43","60.0","6"
"04/09/12 18:16:27","57.9448","15.8","213.41","0","60.03","6"
"04/09/12 18:21:26","57.9453","11.6","213.27","2","60.03","6"
"04/09/12 18:26:25","57.9459","0.9","213.37","0","60.0","6"
"04/09/12 18:31:26","57.9462","0.0","213.31","0","60.03","6"
"04/09/12 18:41:25","57.9466","14.2","213.12","20","60.0","6"
"04/10/12 06:46:29","57.9475","0.0","213.47","3","60.03","3"
"04/10/12 06:51:27","57.9481","0.0","213.84","215","60.03","3"
"04/10/12 06:56:26","57.9489","13.9","213.44","14","60.03","3"
"04/10/12 07:01:26","57.95","15.8","212.24","103","60.0","3"
"04/10/12 07:06:25","57.9515","17.0","212.82","36","60.0","4"
"04/10/12 07:11:25","57.9532","33.2","213.15","97","60.03","4"
"04/10/12 07:16:27","57.9554","33.8","214.03","67","60.03","4"
"04/10/12 07:21:26","57.9578","35.8","213.9","195","60.0","4"
"04/10/12 07:26:25","57.9607","41.5","213.51","154","60.03","5"
"04/10/12 07:31:26","57.9639","48.1","212.28","379","60.0","5"
"04/10/12 07:36:26","57.9676","42.2","213.39","413","60.0","5"
"04/10/12 07:41:27","57.9715","55.5","213.58","103","60.03","5"
"04/10/12 07:46:25","57.9753","47.0","214.03","370","60.07","6"
"04/10/12 07:51:26","57.9792","54.3","215.14","355","60.03","6"
"04/10/12 07:56:26","57.983","47.3","214.53","143","60.03","6"
"04/10/12 08:01:26","57.9869","60.3","214.74","171","60.03","6"
"04/10/12 08:06:27","57.9909","55.6","214.68","370","60.03","6"
"04/10/12 08:11:26","57.9952","45.6","214.55","388","60.07","6"
"04/10/12 08:16:27","57.9998","44.9","214.09","97","60.03","6"
"04/10/12 08:21:27","58.0072","99.4","215.54","478","60.03","6"
"04/10/12 08:26:25","58.0151","104.7","214.86","503","60.03","6"
"04/10/12 08:31:26","58.0235","109.7","215.53","527","60.03","7"
"04/10/12 08:36:27","58.0322","114.6","215.66","545","60.03","7"
"04/10/12 08:41:26","58.0413","119.6","215.37","565","60.0","7"
"04/10/12 08:46:26","58.0506","118.0","215.38","559","60.03","8"
"04/10/12 08:51:26","58.0601","129.1","215.21","609","60.0","8"
"04/10/12 08:56:26","58.0704","133.3","215.79","628","60.03","8"
"04/10/12 09:01:27","58.0808","137.9","215.76","639","60.0","9"
"04/10/12 09:06:25","58.0915","140.8","215.99","658","60.03","9"
"04/10/12 09:11:26","58.1016","130.9","215.93","611","60.0","9"
"04/10/12 09:16:27","58.1118","131.9","215.7","619","60.03","9"
"04/10/12 09:21:27","58.1225","141.9","216.35","661","60.0","9"
"04/10/12 09:26:27","58.1343","157.8","217.08","725","60.0","9"
"04/10/12 09:31:26","58.147","165.8","217.18","756","60.03","9"
"04/10/12 09:36:26","58.1599","169.8","217.21","777","60.03","10"
"04/10/12 09:41:26","58.17","61.3","215.1","315","60.03","9"
"04/10/12 09:46:26","58.1739","42.1","214.15","351","60.0","9"
"04/10/12 09:51:26","58.1778","50.9","214.05","228","60.03","8"
"04/10/12 09:56:27","58.1816","48.1","214.07","390","60.03","8"
"04/10/12 10:01:25","58.1855","43.0","213.96","370","60.0","8"
"04/10/12 10:06:27","58.1894","44.3","213.64","296","60.0","7"
"04/10/12 10:11:25","58.1933","36.3","214.88","207","60.03","7"
"04/10/12 10:16:26","58.1972","47.5","214.24","148","60.0","7"
"04/10/12 10:21:26","58.2011","58.3","213.7","285","60.0","7"
"04/10/12 10:26:26","58.2051","42.9","214.31","86","60.03","7"
"04/10/12 10:31:26","58.2096","47.8","215.4","340","60.0","7"
"04/10/12 10:36:25","58.2138","57.0","214.92","352","60.03","8"
"04/10/12 10:41:26","58.2179","51.0","214.41","142","60.0","7"
"04/10/12 10:51:26","58.2265","68.3","214.94","304","60.0","8"
"04/10/12 10:56:27","58.2306","53.8","214.35","262","60.03","8"
"04/10/12 11:01:27","58.2345","37.2","215.48","384","60.0","8"
"04/10/12 11:06:26","58.2383","40.6","215.08","143","60.0","7"
"04/10/12 11:11:26","58.2422","51.3","215.01","105","60.03","7"
"04/10/12 11:16:27","58.2461","55.6","214.69","183","60.03","7"
"04/10/12 11:21:26","58.2499","47.6","214.6","286","60.03","7"
"04/10/12 11:26:27","58.2538","53.4","215.66","131","60.03","7"
"04/10/12 11:31:27","58.2576","50.0","214.6","375","60.03","7"
"04/10/12 11:36:26","58.2616","59.7","214.94","419","60.03","7"
"04/10/12 11:41:27","58.2696","137.1","215.93","641","60.03","7"
"04/10/12 11:46:26","58.2812","179.0","216.6","816","60.03","9"
"04/10/12 11:51:26","58.2964","197.6","217.25","899","60.03","9"
"04/10/12 11:56:27","58.3117","197.1","217.77","894","60.07","11"
"04/10/12 12:01:26","58.3262","197.0","216.47","882","60.03","11"
"04/10/12 12:06:27","58.341","189.8","217.25","857","60.0","11"
"04/10/12 12:11:27","58.3558","169.0","216.27","776","60.0","11"
"04/10/12 12:16:26","58.3706","194.3","217.59","880","60.0","12"
"04/10/12 12:21:26","58.3819","105.7","215.1","505","60.03","11"
"04/10/12 12:26:26","58.3936","151.4","216.83","701","60.03","11"
"04/10/12 12:31:26","58.4015","72.2","214.01","362","60.03","10"
"04/10/12 12:36:26","58.4071","75.0","214.47","373","60.03","9"
"04/10/12 12:41:27","58.4128","62.1","215.14","318","60.03","8"
"04/10/12 12:46:26","58.4165","39.1","213.85","368","60.03","8"
"04/10/12 12:51:25","58.4203","45.1","213.43","115","60.03","7"
"04/10/12 12:56:26","58.4242","47.9","212.96","389","60.03","7"
"04/10/12 13:01:26","58.4281","49.5","215.09","101","60.0","7"
"04/10/12 13:06:26","58.4323","69.0","215.78","231","60.03","7"
"04/10/12 13:11:26","58.4388","87.4","215.38","427","60.03","7"
"04/10/12 13:16:27","58.4473","117.0","216.45","552","60.0","7"
"04/10/12 13:21:26","58.4555","98.8","215.81","475","60.0","7"
"04/10/12 13:26:26","58.4631","100.0","215.53","481","60.03","8"
"04/10/12 13:31:26","58.4735","170.2","218.49","774","60.0","9"
"04/10/12 13:36:25","58.4857","137.4","217.5","637","60.0","9"
"04/10/12 13:41:26","58.4948","113.9","216.57","540","60.03","9"
"04/10/12 13:46:27","58.509","188.3","218.02","846","60.0","10"
"04/10/12 13:51:25","58.5236","197.3","218.88","890","60.03","11"
"04/10/12 13:56:27","58.5381","185.7","218.47","841","60.03","11"
"04/10/12 14:01:27","58.5478","106.6","216.3","510","60.03","10"
"04/10/12 14:06:26","58.557","96.5","215.84","466","60.0","10"
"04/10/12 14:11:27","58.5678","130.6","216.81","614","60.03","10"
"04/10/12 14:16:27","58.5772","107.3","216.83","509","60.0","10"
"04/10/12 14:21:26","58.5873","149.6","216.86","696","60.03","10"
"04/10/12 14:26:26","58.5972","128.1","217.12","600","60.03","9"
"04/10/12 14:31:26","58.6071","152.8","217.26","698","60.0","10"
"04/10/12 14:36:27","58.6176","136.9","216.97","637","60.03","10"
"04/10/12 14:41:27","58.6277","129.1","217.05","605","60.0","10"
"04/10/12 14:46:25","58.6386","132.0","217.31","609","60.0","10"
"04/10/12 14:51:26","58.65","158.6","217.42","729","60.03","11"
"04/10/12 14:56:27","58.6645","195.5","218.64","880","60.03","11"
"04/10/12 15:01:26","58.6797","196.6","217.94","884","60.03","12"
"04/10/12 15:06:27","58.6943","196.3","217.87","886","60.0","13"
"04/10/12 15:11:27","58.7086","181.0","217.68","817","60.03","13"
"04/10/12 15:16:26","58.7225","176.7","218.18","802","60.03","13"
"04/10/12 15:21:26","58.7361","173.6","218.59","791","60.03","13"
"04/10/12 15:26:26","58.7494","171.3","218.73","779","60.03","13"
"04/10/12 15:31:26","58.7626","160.1","218.07","734","60.03","13"
"04/10/12 15:36:27","58.7748","138.9","217.28","644","60.03","12"
"04/10/12 15:41:26","58.7868","155.9","217.64","716","60.03","12"
"04/10/12 15:46:27","58.7986","154.8","217.11","712","60.0","12"
"04/10/12 15:51:27","58.8106","151.6","217.75","699","60.03","12"
"04/10/12 15:56:26","58.8221","148.1","217.77","680","60.03","11"
"04/10/12 16:01:27","58.8334","139.9","217.31","649","60.03","11"
"04/10/12 16:06:25","58.8437","126.3","216.44","595","60.03","11"
"04/10/12 16:11:26","58.854","136.8","217.0","633","60.03","11"
"04/10/12 16:16:27","58.8639","94.6","216.57","454","60.0","11"
"04/10/12 16:21:26","58.8734","124.5","216.77","583","60.0","11"
"04/10/12 16:26:26","58.8827","118.9","216.95","560","60.03","11"
"04/10/12 16:31:27","58.8919","114.5","216.56","539","60.03","11"
"04/10/12 16:36:26","58.9002","102.8","216.72","491","60.03","11"
"04/10/12 16:41:27","58.9079","100.7","215.73","485","60.03","10"
"04/10/12 16:46:26","58.9154","98.0","215.99","471","60.03","10"
"04/10/12 16:51:27","58.9229","94.9","216.13","457","60.0","10"
"04/10/12 16:56:27","58.9301","89.1","215.86","434","60.0","10"
"04/10/12 17:01:26","58.9368","84.1","216.02","412","60.03","9"
"04/10/12 17:06:26","58.9431","78.2","215.12","390","60.03","9"
"04/10/12 17:11:26","58.949","73.0","216.07","366","60.03","9"
"04/10/12 17:16:26","58.9544","67.9","215.9","342","60.03","9"
"04/10/12 17:21:25","58.9595","62.6","215.46","318","60.0","9"
"04/10/12 17:26:26","58.9637","44.9","216.01","361","60.03","9"
"04/10/12 17:31:27","58.9675","47.2","215.25","392","60.03","9"
"04/10/12 17:36:25","58.9713","53.8","213.67","237","60.0","9"
"04/10/12 17:41:26","58.9748","35.5","214.44","287","60.0","9"
"04/10/12 17:46:27","58.9778","42.2","215.37","103","60.03","9"
"04/10/12 17:51:27","58.9805","28.8","214.26","68","60.07","9"
"04/10/12 17:56:26","58.9828","29.3","215.11","195","60.07","9"
"04/10/12 18:01:26","58.9848","13.8","214.86","15","60.0","9"
"04/10/12 18:06:27","58.9865","20.6","214.05","193","60.03","8"
"04/10/12 18:11:26","58.9879","15.7","214.12","27","60.07","8"
"04/10/12 18:16:26","58.9889","10.6","213.9","108","60.03","8"
"04/10/12 18:21:27","58.9898","4.4","214.32","0","60.03","8"
"04/10/12 18:26:27","58.9904","12.8","214.1","142","60.03","8"
"04/10/12 18:31:26","58.9909","0.0","214.26","117","60.0","8"
"04/10/12 18:36:26","58.9912","0.0","214.18","0","60.03","8"
"04/10/12 18:41:27","58.9915","11.4","214.65","1","60.03","7"
"04/11/12 06:41:30","58.9926","11.1","213.43","4","60.03","3"
"04/11/12 06:46:27","58.9932","11.9","213.63","1","60.03","3"
"04/11/12 06:51:27","58.994","6.2","213.01","193","60.03","4"
"04/11/12 06:56:26","58.995","23.3","212.35","266","60.0","4"
"04/11/12 07:01:26","58.9964","27.8","213.02","58","60.0","4"
"04/11/12 07:06:26","58.998","13.6","211.98","136","60.07","5"
"04/11/12 07:11:26","58.9999","29.1","213.54","38","60.03","5"
"04/11/12 07:16:27","59.002","27.0","212.8","258","60.03","5"
"04/11/12 07:21:27","59.0046","40.2","213.01","203","60.03","6"
"04/11/12 07:26:28","59.0075","35.6","212.31","110","60.03","6"
"04/11/12 07:31:26","59.0108","44.3","213.4","111","60.03","6"
"04/11/12 07:36:27","59.0146","57.2","214.09","184","60.03","6"
"04/11/12 07:41:27","59.0184","46.9","214.45","391","60.07","6"
"04/11/12 07:46:28","59.0223","47.0","213.85","370","60.03","6"
"04/11/12 07:51:26","59.0262","48.6","214.93","396","60.07","6"
"04/11/12 07:56:26","59.03","57.2","214.72","335","60.03","7"
"04/11/12 08:01:27","59.0339","37.7","214.52","88","60.0","7"
"04/11/12 08:06:26","59.0395","92.6","214.99","446","60.03","8"
"04/11/12 08:11:26","59.0467","63.4","214.55","370","60.03","8"
"04/11/12 08:16:26","59.0529","110.1","215.6","522","60.03","8"
"04/11/12 08:21:27","59.0609","119.6","215.59","568","60.03","9"
"04/11/12 08:26:27","59.0702","130.9","216.6","611","60.03","9"
"04/11/12 08:31:27","59.076","41.8","213.84","267","60.0","9"
"04/11/12 08:36:26","59.0798","45.4","214.42","83","60.0","9"
"04/11/12 08:41:27","59.0833","56.8","213.54","166","60.03","9"
"04/11/12 08:46:27","59.0871","50.2","213.95","331","60.03","9"
"04/11/12 08:51:27","59.0903","27.5","213.84","75","60.03","9"
"04/11/12 08:56:27","59.0926","33.4","214.19","101","60.03","8"
"04/11/12 09:01:27","59.0951","42.4","214.72","274","60.0","8"
"04/11/12 09:06:26","59.0986","52.4","215.09","396","60.0","9"
"04/11/12 09:11:26","59.1012","25.2","214.06","163","60.03","9"
"04/11/12 09:16:26","59.1034","15.8","213.74","16","60.03","8"
"04/11/12 09:21:27","59.1063","34.9","213.91","100","60.0","9"
"04/11/12 09:26:27","59.1099","44.8","214.65","368","60.03","9"
"04/11/12 09:31:27","59.1137","41.3","215.36","386","60.03","9"
"04/11/12 09:36:27","59.1174","41.8","215.87","215","60.0","9"
"04/11/12 09:41:27","59.1212","59.6","216.25","239","60.03","9"
"04/11/12 09:46:27","59.1251","47.1","214.07","414","60.0","9"
"04/11/12 09:51:27","59.129","52.3","212.91","370","60.03","9"
"04/11/12 09:56:26","59.1328","61.0","214.11","189","60.0","9"
"04/11/12 10:01:26","59.1366","53.4","215.13","164","60.0","9"
"04/11/12 10:06:27","59.1405","50.6","213.78","111","60.03","9"
"04/11/12 10:11:27","59.1444","58.0","213.32","108","60.03","9"
"04/11/12 10:16:26","59.1482","54.4","215.62","364","60.03","10"
"04/11/12 10:21:26","59.1521","61.8","214.59","166","60.03","10"
"04/11/12 10:26:27","59.156","41.3","214.84","278","60.03","10"
"04/11/12 10:31:26","59.1599","62.6","215.49","329","60.03","10"
"04/11/12 10:36:26","59.1636","57.2","215.04","198","60.03","10"
"04/11/12 10:41:27","59.1675","54.6","215.27","116","60.0","11"
"04/11/12 10:46:28","59.1714","60.6","214.67","95","60.0","11"
"04/11/12 10:51:26","59.1765","117.4","216.29","556","60.0","11"
"04/11/12 11:01:27","59.1889","68.6","216.02","344","60.0","11"
"04/11/12 11:06:26","59.1953","82.7","216.13","406","60.07","11"
"04/11/12 11:11:27","59.2033","106.8","217.36","508","60.03","11"
"04/11/12 11:16:27","59.2101","80.3","216.17","394","60.03","11"
"04/11/12 11:21:27","59.217","96.4","215.71","462","60.03","11"
"04/11/12 11:26:27","59.2255","103.4","217.14","494","60.07","11"
"04/11/12 11:31:27","59.2337","190.4","217.99","859","60.03","12"
"04/11/12 11:36:27","59.2424","80.6","216.35","398","60.03","12"
"04/11/12 11:41:26","59.2483","77.3","216.4","379","60.07","12"
"04/11/12 11:46:27","59.2557","105.0","216.64","503","60.0","12"
"04/11/12 11:51:27","59.2636","98.7","217.77","470","60.03","12"
"04/11/12 11:56:28","59.2711","84.7","216.44","414","60.03","12"
"04/11/12 12:01:28","59.278","107.4","216.08","511","60.03","11"
"04/11/12 12:06:26","59.2855","89.6","216.31","434","60.03","11"
"04/11/12 12:11:27","59.292","91.1","215.88","442","60.03","11"
"04/11/12 12:16:27","59.3002","108.1","216.78","514","60.0","11"
"04/11/12 12:21:28","59.3091","95.5","216.38","461","60.07","12"
"04/11/12 12:26:26","59.3167","100.9","216.38","483","60.03","11"
"04/11/12 12:31:26","59.323","79.3","215.52","388","60.03","12"
"04/11/12 12:36:27","59.3312","82.1","215.3","402","60.03","11"
"04/11/12 12:41:26","59.3403","111.7","216.3","530","60.03","12"
"04/11/12 12:46:27","59.347","89.8","216.37","437","60.07","12"
"04/11/12 12:51:28","59.3552","104.7","214.99","502","60.03","12"
"04/11/12 12:56:28","59.3626","93.0","216.08","453","60.03","11"
"04/11/12 13:01:27","59.3694","86.6","215.53","422","60.0","11"
"04/11/12 13:06:26","59.376","95.2","216.42","458","60.0","11"
"04/11/12 13:11:27","59.383","82.8","215.78","404","60.03","11"
"04/11/12 13:16:27","59.3891","77.9","215.57","386","60.0","11"
"04/11/12 13:21:26","59.3957","86.0","215.77","420","60.03","11"
"04/11/12 13:26:27","59.4021","76.6","215.46","382","60.0","11"
"04/11/12 13:31:28","59.4093","97.1","215.93","469","60.03","11"
"04/11/12 13:36:27","59.4174","139.2","216.62","647","60.03","12"
"04/11/12 13:41:27","59.4258","91.1","216.19","437","60.03","12"
"04/11/12 13:46:26","59.4327","85.0","215.92","415","60.03","12"
"04/11/12 13:51:27","59.44","92.1","216.88","444","60.0","11"
"04/11/12 13:56:27","59.4467","81.5","215.58","400","60.0","11"
"04/11/12 14:01:27","59.4529","77.0","215.31","383","60.0","11"
"04/11/12 14:06:27","59.4592","86.2","216.18","418","60.03","11"
"04/11/12 14:11:28","59.4651","68.7","215.45","345","60.0","11"
"04/11/12 14:16:27","59.4707","73.3","215.53","366","60.03","11"
"04/11/12 14:21:27","59.4766","77.5","216.34","383","60.03","11"
"04/11/12 14:26:26","59.4825","76.9","216.35","383","60.03","11"
"04/11/12 14:31:27","59.4886","78.0","216.28","381","60.03","11"
"04/11/12 14:36:26","59.4948","75.7","215.29","379","60.03","11"
"04/11/12 14:41:27","59.5003","67.9","215.33","343","60.03","11"
"04/11/12 14:46:27","59.5059","78.9","215.43","386","60.0","11"
"04/11/12 14:51:26","59.5121","77.3","215.84","383","60.03","11"
"04/11/12 14:56:28","59.5178","73.4","215.48","364","60.03","11"
"04/11/12 15:01:26","59.5236","76.3","215.51","376","60.03","11"
"04/11/12 15:06:27","59.5297","77.6","215.79","383","60.03","11"
"04/11/12 15:11:26","59.5364","87.5","216.1","427","60.03","11"
"04/11/12 15:16:27","59.5431","87.2","215.73","423","60.03","11"
"04/11/12 15:21:26","59.5497","89.4","216.48","431","60.03","11"
"04/11/12 15:26:26","59.5565","80.7","215.91","399","60.07","11"
"04/11/12 15:31:27","59.5643","92.2","216.56","445","60.0","11"
"04/11/12 15:36:27","59.5704","68.9","215.14","347","60.03","11"
"04/11/12 15:41:26","59.5777","86.6","216.32","421","59.96","11"
"04/11/12 15:46:27","59.5876","195.7","218.37","881","60.03","12"
"04/11/12 15:51:26","59.5943","37.1","215.15","76","60.0","12"
"04/11/12 15:56:27","59.5981","55.5","215.05","347","60.03","11"
"04/11/12 16:01:26","59.6072","146.5","217.73","677","60.03","12"
"04/11/12 16:06:27","59.6158","122.3","216.38","579","60.03","12"
"04/11/12 16:11:27","59.6264","132.1","216.88","612","60.03","13"
"04/11/12 16:16:28","59.6358","126.3","216.21","595","60.03","13"
"04/11/12 16:21:26","59.6453","121.0","216.73","566","60.03","14"
"04/11/12 16:26:26","59.6545","116.2","216.07","549","60.0","14"
"04/11/12 16:31:26","59.6634","112.0","216.02","532","60.03","14"
"04/11/12 16:36:28","59.672","107.7","215.08","512","60.03","14"
"04/11/12 16:41:27","59.6802","102.0","214.91","492","60.03","14"
"04/11/12 16:46:28","59.688","97.9","214.98","472","60.03","13"
"04/11/12 16:51:27","59.6954","93.1","214.92","452","60.03","13"
"04/11/12 16:56:27","59.7024","87.4","214.96","429","60.03","14"
"04/11/12 17:01:27","59.709","82.2","215.0","406","60.07","14"
"04/11/12 17:06:27","59.7152","77.5","214.69","383","60.03","14"
"04/11/12 17:11:27","59.721","72.3","214.75","363","60.03","13"
"04/11/12 17:16:26","59.7264","67.2","214.59","336","60.03","13"
"04/11/12 17:21:27","59.7315","62.1","215.15","319","60.03","13"
"04/11/12 17:26:27","59.7355","62.9","214.81","286","60.03","13"
"04/11/12 17:31:27","59.7393","42.6","213.94","343","60.0","13"
"04/11/12 17:36:28","59.7431","51.1","213.56","312","60.03","13"
"04/11/12 17:41:26","59.7466","46.5","213.73","273","60.03","13"
"04/11/12 17:46:27","59.7496","42.4","213.45","110","60.03","13"
"04/11/12 17:51:27","59.7523","36.7","213.87","204","60.03","13"
"04/11/12 17:56:27","59.7546","34.2","214.45","225","60.03","12"
"04/11/12 18:01:26","59.7567","16.6","214.98","17","60.07","12"
"04/11/12 18:06:26","59.7583","17.2","214.14","55","60.0","12"
"04/11/12 18:11:28","59.7597","23.9","214.26","231","60.0","11"
"04/11/12 18:16:27","59.7609","13.2","214.42","7","60.03","11"
"04/11/12 18:21:26","59.7618","14.0","214.09","3","60.03","11"
"04/11/12 18:26:27","59.7625","0.0","213.67","248","60.0","11"
"04/11/12 18:31:27","59.763","10.7","214.0","1","60.0","10"
"04/11/12 18:36:28","59.7634","0.0","213.78","0","60.03","10"
"04/11/12 18:41:27","59.7637","0.0","213.33","0","60.03","9"
"04/11/12 18:46:27","59.764","0.0","213.12","0","60.03","9"
"04/11/12 19:01:26","59.7645","0.0","213.57","0","60.03","8"
"04/12/12 06:51:29","59.7657","4.0","214.18","176","60.03","1"
"04/12/12 06:56:26","59.7667","21.8","213.68","187","60.03","1"
"04/12/12 07:01:26","59.768","13.3","213.16","3","60.0","2"
"04/12/12 07:06:27","59.7696","24.1","213.75","48","60.03","2"
"04/12/12 07:11:27","59.7714","28.5","214.53","92","60.03","3"
"04/12/12 07:16:28","59.7736","26.9","214.16","212","60.03","3"
"04/12/12 07:21:26","59.7761","34.7","213.32","264","60.03","4"
"04/12/12 07:26:27","59.7791","36.2","213.63","184","60.03","4"
"04/12/12 07:31:27","59.7824","54.1","214.42","102","60.0","5"